TimePST,TemperatureF,Dew PointF,Humidity,Sea Level PressureIn,VisibilityMPH,Wind Direction,Wind SpeedMPH,Gust SpeedMPH,PrecipitationIn,Events,Conditions,WindDirDegrees,DateUTC
12:00 AM,43.7,40.8,90,30.11,-9999.0,South,3.5,-,N/A,,Unknown,180,2013-01-24 08:00:00
1:00 AM,42.4,39.7,90,30.14,-9999.0,WSW,1.2,-,N/A,,Unknown,250,2013-01-24 09:00:00
2:00 AM,40.1,37.9,92,30.17,-9999.0,Calm,Calm,-,N/A,,Unknown,0,2013-01-24 10:00:00
3:00 AM,39.9,37.8,92,30.18,-9999.0,SE,1.2,-,N/A,,Unknown,130,2013-01-24 11:00:00
4:00 AM,41,38,87,30.19,,SE,1.2,,,,,140,2013-01-24 12:00:00
4:00 AM,40.6,38.5,92,30.19,-9999.0,SE,1.2,-,N/A,,Unknown,140,2013-01-24 12:00:00
5:00 AM,41.4,38.7,90,30.19,-9999.0,SE,1.2,-,N/A,,Unknown,140,2013-01-24 13:00:00
6:00 AM,40.8,38.3,91,30.21,-9999.0,SE,1.2,-,N/A,,Unknown,130,2013-01-24 14:00:00
7:00 AM,39.6,37.2,91,30.21,-9999.0,East,1.2,-,N/A,,Unknown,80,2013-01-24 15:00:00
8:00 AM,39.2,37.0,92,30.21,-9999.0,East,1.2,-,N/A,,Unknown,100,2013-01-24 16:00:00
9:00 AM,39.7,37.6,92,30.20,-9999.0,East,2.3,-,N/A,,Unknown,80,2013-01-24 17:00:00
10:00 AM,43,40,84,30.20,,ENE,2.3,,,,,70,2013-01-24 18:00:00
10:00 AM,42.8,39.7,89,30.20,-9999.0,ENE,2.3,-,N/A,,Unknown,70,2013-01-24 18:00:00
11:00 AM,44.1,38.8,82,30.20,-9999.0,NE,1.2,-,N/A,,Unknown,50,2013-01-24 19:00:00
12:00 PM,45.1,39.2,80,30.18,-9999.0,NE,3.5,-,N/A,,Unknown,50,2013-01-24 20:00:00
1:00 PM,45.1,38.8,79,30.14,-9999.0,ENE,2.3,-,N/A,,Unknown,60,2013-01-24 21:00:00
2:00 PM,44.4,38.8,81,30.11,-9999.0,NE,2.3,-,N/A,,Unknown,50,2013-01-24 22:00:00
3:00 PM,44.4,39.0,81,30.10,-9999.0,NE,1.2,-,N/A,,Unknown,40,2013-01-24 23:00:00
4:00 PM,44,40,79,30.11,,North,2.3,,,,,10,2013-01-25 00:00:00
4:00 PM,43.5,39.6,86,30.11,-9999.0,North,2.3,-,0.02,,Unknown,10,2013-01-25 00:00:00
5:00 PM,42.1,37.9,85,30.12,-9999.0,East,3.5,-,0.03,,Unknown,90,2013-01-25 01:00:00
6:00 PM,41.5,38.3,88,30.10,-9999.0,NE,4.6,-,0.05,,Unknown,40,2013-01-25 02:00:00
7:00 PM,41.0,38.1,89,30.09,-9999.0,NE,4.6,-,0.05,,Unknown,40,2013-01-25 03:00:00
8:00 PM,40.5,37.9,91,30.07,-9999.0,NNE,4.6,-,0.02,,Unknown,30,2013-01-25 04:00:00
9:00 PM,39.9,37.6,91,30.06,-9999.0,NNE,5.8,-,0.03,,Unknown,30,2013-01-25 05:00:00
10:00 PM,40,38,88,30.05,,NE,5.8,,,,,40,2013-01-25 06:00:00
10:00 PM,39.9,37.8,92,30.05,-9999.0,NE,5.8,-,0.04,,Unknown,40,2013-01-25 06:00:00
11:00 PM,39.9,37.8,92,30.05,-9999.0,NE,5.8,-,0.05,,Unknown,40,2013-01-25 07:00:00